| time (UTC) | temp F | wind direction | speed knots | gust knots | rain 1hr in | rain 24hr in | rain mn in | humidity % | barometer mb |
| 20260505213054 | 79 | 223 | 2.6 | 13.0 | 0.00 | 0.00 | 0.00 | 34 | 1009.3 |
| 20260505211542 | 79 | 227 | 1.7 | 9.6 | 0.00 | 0.00 | 0.00 | 36 | 1009.3 |
| 20260505210040 | 79 | 213 | 2.6 | 7.8 | 0.00 | 0.00 | 0.00 | 35 | 1009.3 |
| 20260505204539 | 80 | 175 | 0.9 | 8.7 | 0.00 | 0.00 | 0.00 | 35 | 1009.3 |
| 20260505203044 | 80 | 251 | 0.9 | 8.7 | 0.00 | 0.00 | 0.00 | 38 | 1009.3 |
| 20260505201530 | 80 | 229 | 0.9 | 8.7 | 0.00 | 0.00 | 0.00 | 38 | 1009.4 |
| 20260505200034 | 81 | 219 | 1.7 | 9.6 | 0.00 | 0.00 | 0.00 | 34 | 1009.5 |
| 20260505194526 | 82 | 216 | 1.7 | 12.2 | 0.00 | 0.00 | 0.00 | 35 | 1009.6 |
| 20260505193023 | 81 | 221 | 5.2 | 11.3 | 0.00 | 0.00 | 0.00 | 35 | 1009.8 |
| 20260505191520 | 82 | 228 | 2.6 | 12.2 | 0.00 | 0.00 | 0.00 | 38 | 1009.9 |
| 20260505190021 | 81 | 238 | 1.7 | 8.7 | 0.00 | 0.00 | 0.00 | 38 | 1010.2 |
| 20260505184522 | 82 | 195 | 1.7 | 7.0 | 0.00 | 0.00 | 0.00 | 39 | 1010.3 |
| 20260505183013 | 82 | 236 | 1.7 | 7.8 | 0.00 | 0.00 | 0.00 | 39 | 1010.4 |
| 20260505181509 | 82 | 223 | 1.7 | 16.5 | 0.00 | 0.00 | 0.00 | 35 | 1010.7 |
| 20260505180007 | 81 | 200 | 1.7 | 10.4 | 0.00 | 0.00 | 0.00 | 39 | 1010.9 |
| 20260505174503 | 81 | 216 | 3.5 | 10.4 | 0.00 | 0.00 | 0.00 | 36 | 1011.0 |
| 20260505173005 | 81 | 180 | 2.6 | 7.0 | 0.00 | 0.00 | 0.00 | 39 | 1011.2 |
| 20260505171559 | 81 | 268 | 2.6 | 9.6 | 0.00 | 0.00 | 0.00 | 40 | 1011.3 |
| 20260505170057 | 81 | 278 | 2.6 | 7.8 | 0.00 | 0.00 | 0.00 | 44 | 1011.4 |
| 20260505164602 | 80 | 200 | 1.7 | 11.3 | 0.00 | 0.00 | 0.00 | 42 | 1011.7 |
| 20260505163059 | 80 | 225 | 2.6 | 9.6 | 0.00 | 0.00 | 0.00 | 40 | 1011.9 |
| 20260505161551 | 80 | 252 | 0.9 | 6.1 | 0.00 | 0.00 | 0.00 | 40 | 1011.9 |
| 20260505153057 | 78 | 219 | 0.9 | 7.0 | 0.00 | 0.00 | 0.00 | 45 | 1012.0 |
| 20260505151548 | 77 | 229 | 0.9 | 7.8 | 0.00 | 0.00 | 0.00 | 46 | 1012.0 |
| 20260505124504 | 62 | 221 | 0.0 | 4.3 | 0.00 | 0.00 | 0.00 | 70 | 1013.1 |
| 20260505123107 | 61 | 178 | 0.0 | 5.2 | 0.00 | 0.00 | 0.00 | 72 | 1013.2 |
| 20260505121557 | 60 | 196 | 0.0 | 1.7 | 0.00 | 0.00 | 0.00 | 73 | 1013.1 |
| 20260505120053 | 59 | 265 | 0.0 | 6.1 | 0.00 | 0.00 | 0.00 | 74 | 1012.9 |
| 20260505114550 | 58 | 192 | 0.0 | 1.7 | 0.00 | 0.00 | 0.00 | 75 | 1012.8 |
| 20260505113049 | 58 | 150 | 0.0 | 0.0 | 0.00 | 0.00 | 0.00 | 74 | 1012.7 |
| 20260505111553 | 56 | 197 | 0.0 | 0.9 | 0.00 | 0.00 | 0.00 | 79 | 1012.5 |
| 20260505101537 | 53 | 197 | 0.0 | 0.0 | 0.00 | 0.00 | 0.00 | 81 | 1011.7 |
| 20260505100042 | 53 | 197 | 0.0 | 0.0 | 0.00 | 0.00 | 0.00 | 80 | 1011.7 |
| 20260505094535 | 53 | 197 | 0.0 | 0.0 | 0.00 | 0.00 | 0.00 | 80 | 1011.7 |
| 20260505093034 | 53 | 197 | 0.0 | 0.0 | 0.00 | 0.00 | 0.00 | 81 | 1011.6 |
| 20260505091549 | 53 | 197 | 0.0 | 0.0 | 0.00 | 0.00 | 0.00 | 82 | 1011.6 |
| 20260505090049 | 53 | 197 | 0.0 | 0.0 | 0.00 | 0.00 | 0.00 | 83 | 1011.6 |
| 20260505084536 | 52 | 197 | 0.0 | 0.0 | 0.00 | 0.00 | 0.00 | 83 | 1011.6 |
| 20260505083132 | 53 | 197 | 0.0 | 0.0 | 0.00 | 0.00 | 0.00 | 83 | 1011.7 |
| 20260505081548 | 53 | 197 | 0.0 | 0.0 | 0.00 | 0.00 | 0.00 | 83 | 1011.5 |
| 20260505080038 | 53 | 197 | 0.0 | 0.0 | 0.00 | 0.00 | 0.00 | 83 | 1011.5 |
| 20260505074527 | 53 | 197 | 0.0 | 0.0 | 0.00 | 0.00 | 0.00 | 81 | 1011.4 |
| 20260505073025 | 53 | 197 | 0.0 | 0.0 | 0.00 | 0.00 | 0.00 | 83 | 1011.3 |
| 20260505071527 | 54 | 197 | 0.0 | 0.0 | 0.00 | 0.00 | 0.00 | 80 | 1011.2 |
| 20260505070025 | 56 | 197 | 0.0 | 0.0 | 0.00 | 0.00 | 0.00 | 77 | 1011.3 |
| 20260505064517 | 56 | 197 | 0.0 | 0.0 | 0.00 | 0.00 | 0.00 | 79 | 1011.2 |
| 20260505063016 | 58 | 197 | 0.0 | 0.0 | 0.00 | 0.00 | 0.00 | 73 | 1011.3 |
| 20260505061524 | 57 | 197 | 0.0 | 0.0 | 0.00 | 0.00 | 0.00 | 75 | 1011.5 |
| 20260505060014 | 57 | 197 | 0.0 | 0.0 | 0.00 | 0.00 | 0.00 | 74 | 1011.7 |
| 20260505054518 | 57 | 197 | 0.0 | 0.0 | 0.00 | 0.00 | 0.00 | 73 | 1011.5 |
| 20260505053009 | 57 | 197 | 0.0 | 0.0 | 0.00 | 0.00 | 0.00 | 72 | 1011.4 |
| 20260505051506 | 57 | 197 | 0.0 | 0.0 | 0.00 | 0.00 | 0.00 | 72 | 1011.4 |
| 20260505041601 | 57 | 197 | 0.0 | 0.0 | 0.00 | 0.00 | 0.00 | 70 | 1011.2 |
| 20260505040059 | 57 | 197 | 0.0 | 0.0 | 0.00 | 0.00 | 0.00 | 71 | 1011.1 |
| 20260505034555 | 57 | 197 | 0.0 | 0.0 | 0.00 | 0.00 | 0.00 | 71 | 1011.0 |
| 20260505033055 | 57 | 197 | 0.0 | 0.0 | 0.00 | 0.00 | 0.00 | 71 | 1010.9 |
| 20260505031556 | 58 | 197 | 0.0 | 0.0 | 0.00 | 0.00 | 0.00 | 69 | 1010.8 |
| 20260505030053 | 57 | 197 | 0.0 | 0.9 | 0.00 | 0.00 | 0.00 | 69 | 1011.0 |
| 20260505024607 | 58 | 197 | 0.0 | 0.0 | 0.00 | 0.00 | 0.00 | 69 | 1011.1 |
| 20260505023052 | 57 | 197 | 0.0 | 0.0 | 0.00 | 0.00 | 0.00 | 70 | 1011.0 |
| 20260505021608 | 57 | 197 | 0.0 | 0.0 | 0.00 | 0.00 | 0.00 | 69 | 1010.9 |
| 20260505020050 | 58 | 197 | 0.0 | 0.0 | 0.00 | 0.00 | 0.00 | 66 | 1011.0 |
| 20260505014551 | 59 | 197 | 0.0 | 0.0 | 0.00 | 0.00 | 0.00 | 65 | 1011.0 |
| 20260505013050 | 59 | 197 | 0.0 | 0.0 | 0.00 | 0.00 | 0.00 | 64 | 1011.0 |
| 20260505011555 | 59 | 197 | 0.0 | 0.0 | 0.00 | 0.00 | 0.00 | 63 | 1010.8 |
| 20260505010049 | 60 | 197 | 0.0 | 0.0 | 0.00 | 0.00 | 0.00 | 61 | 1010.5 |
| 20260505004550 | 61 | 197 | 0.0 | 0.0 | 0.00 | 0.00 | 0.00 | 61 | 1010.3 |
| 20260505003048 | 62 | 200 | 0.0 | 0.9 | 0.00 | 0.00 | 0.00 | 59 | 1010.4 |
| 20260505001548 | 62 | 200 | 0.0 | 0.0 | 0.00 | 0.00 | 0.00 | 59 | 1010.3 |
| 20260505000046 | 63 | 202 | 0.0 | 0.0 | 0.00 | 0.00 | 0.00 | 56 | 1010.3 |
| 20260504234547 | 64 | 187 | 0.0 | 0.0 | 0.00 | 0.00 | 0.00 | 55 | 1010.2 |
| 20260504233056 | 65 | 187 | 0.0 | 0.9 | 0.00 | 0.00 | 0.00 | 54 | 1010.2 |
| 20260504231544 | 66 | 149 | 0.0 | 4.3 | 0.00 | 0.00 | 0.00 | 52 | 1010.2 |
| 20260504230043 | 67 | 194 | 2.6 | 6.1 | 0.00 | 0.00 | 0.00 | 49 | 1010.2 |
| 20260504224540 | 68 | 174 | 0.0 | 3.5 | 0.00 | 0.00 | 0.00 | 50 | 1010.2 |
| 20260504223040 | 68 | 208 | 0.0 | 1.7 | 0.00 | 0.00 | 0.00 | 50 | 1010.2 |
| 20260504221538 | 70 | 173 | 0.0 | 3.5 | 0.00 | 0.00 | 0.00 | 46 | 1010.1 |
| 20260504220033 | 71 | 248 | 0.0 | 9.6 | 0.00 | 0.00 | 0.00 | 43 | 1010.0 |
| 20260504214536 | 71 | 200 | 1.7 | 5.2 | 0.00 | 0.00 | 0.00 | 46 | 1010.2 |